User: anonymous   Login
Location: Unspecified
(0.0000°N, 0.0000°E)
Time: 05:39:13
(UTC+00:00)
Language:

USA 290 - Orbit

View from above orbital plane
View from above orbital plane
View from above satellite
View from above satellite

Ground track
Ground track

The orbit data is extracted from the following two-line orbital elements,

1 43941U 19004A   19198.79687557 0.00001500  00000-0  23279-4 0    03
2 43941  73.5927  73.7167 0018751  15.9333 344.0666 15.53646777    03
Epoch (UTC): 17 July 2019 19:07:30
Eccentricity: 0.0018751
inclination: 73.5927°
perigee height: 393 km
apogee height: 419 km
right ascension of ascending node: 73.7167°
argument of perigee: 15.9333°
revolutions per day: 15.53646777
mean anomaly at epoch: 344.0666°
orbit number at epoch: 0

The dashed part of the orbit path shows where the satellite is in the earth's shadow,  

DLR